Find Kosmos-1361

NORAD ID: 13164 Int'l Des: 1982-040 Owner: GUKOS Country: SU operational
LEOCIRCULAR

Live-Position

3D-Globus wird geladen...

Über Kosmos-1361

Beschreibung wird geladen...

Nächste Überflüge

Passes for default location (London). Set your location on the main map for personalized predictions.

Höhenverlauf

Loading altitude history...

Zweizeiliger Elementsatz

1 13164U 82040E 26139.89396558 -.00000003 00000-0 84655-4 0 9999
2 13164 74.0131 62.9520 0014654 216.8498 215.6277 12.48210465 6598
Epoch: 19. Mai 2026 • Age: 3 hours

Aktueller Status

Höhe 1485.7 km
Geschwindigkeit 7.12 km/s
Subsatellitenpunkt -22.75°S, 166.38°E
Startdatum 6. Mai 1982
Alter 44 years
Typ other

Technische Details

Klassifizierung Payload
Masse 60.00 kg
Trockenmasse 60.00 kg
Gesamtmasse 60.00 kg
Länge 0.80 m
Durchmesser 0.80 m
Spannweite 0.80 m
Form Poly
Hersteller NPOPM
Bus-Typ Strela-1 11F625
Phasenstatus In Orbit
Besitzer/Staat GUKOS/SU

Most Searched